This is the latest recevied weather packets stored in our database for station/object M0HZQ-1. If no packets are shown the sender has not sent any weather packets the latest 10 day(s).
| Time | Temp. | Humidity | Pressure | Rain* | Wind** | Luminosity | Snow |
|---|---|---|---|---|---|---|---|
| 1777794417 | 19.44° C | 50% | 1010.3 hPa | 0 mm | - | - | - |
| 1777793297 | 19.44° C | 52% | 1010.3 hPa | 0 mm | - | - | - |
| 1777792294 | 18.89° C | 53% | 1010.3 hPa | 0 mm | - | - | - |
| 1777791334 | 18.33° C | 55% | 1010.4 hPa | 0 mm | - | - | - |
| 1777790317 | 17.78° C | 56% | 1010.3 hPa | 0 mm | - | - | - |
| 1777789219 | 17.22° C | 57% | 1010.2 hPa | 0 mm | - | - | - |
| 1777788204 | 17.22° C | 57% | 1010.3 hPa | 0 mm | - | - | - |
| 1777787194 | 17.22° C | 57% | 1010.2 hPa | 0 mm | - | - | - |
| 1777786097 | 16.67° C | 57% | 1010 hPa | 0 mm | - | - | - |
| 1777785029 | 16.67° C | 57% | 1009.9 hPa | 0 mm | - | - | - |
| 1777783841 | 17.22° C | 57% | 1009.9 hPa | 0 mm | - | - | - |
| 1777782759 | 17.22° C | 57% | 1010.1 hPa | 0 mm | - | - | - |
| 1777781604 | 17.22° C | 57% | 1010.1 hPa | 0 mm | - | - | - |
| 1777780534 | 17.22° C | 57% | 1010 hPa | 0 mm | - | - | - |
| 1777779564 | 17.22° C | 56% | 1010 hPa | 0 mm | - | - | - |
| 1777778584 | 17.78° C | 56% | 1010 hPa | 0 mm | - | - | - |
| 1777777489 | 17.78° C | 56% | 1010.1 hPa | 0 mm | - | - | - |
| 1777776309 | 17.78° C | 56% | 1010.2 hPa | 0 mm | - | - | - |
| 1777775294 | 17.78° C | 57% | 1010.2 hPa | 0 mm | - | - | - |
| 1777774109 | 17.78° C | 57% | 1010.4 hPa | 0 mm | - | - | - |
| 1777773004 | 17.78° C | 56% | 1010.5 hPa | 0 mm | - | - | - |
| 1777771829 | 17.78° C | 56% | 1010.7 hPa | 0 mm | - | - | - |
| 1777770864 | 18.33° C | 56% | 1010.8 hPa | 0 mm | - | - | - |
| 1777769739 | 17.78° C | 57% | 1010.9 hPa | 0 mm | - | - | - |
| 1777768637 | 17.78° C | 57% | 1011.1 hPa | 0 mm | - | - | - |
* Rain latest hour (hover to see other rain measurements)
** Current wind speed in m/s (hover to see current wind gust speed)